ECHOSTAR 21 (42749 NORAD) Tracking and Keplerian Element Data

This shows tracking and keplerian element data for the satellite.

Feedback or suggestion? Click here.




ElementValue
Catalog42749
NameECHOSTAR 21
Epoch Orbit411
Epoch Day198.03379618
Epoch Year2018
RAAN317.0467
Inclination6.8241
Eccentricity0.0001732
Argument of Perigee150.1136
Mean Anonmoly210.0479
Mean Motion1.00271549
Decay Rate4.7E-07
L11 42749U 17032A 18198.03379618 .00000047 00000-0 00000-0 0 9994
L22 42749 6.8241 317.0467 0001732 150.1136 210.0479 1.00271549 4115

Live tracking and technical data element details for ECHOSTAR 21 (NORAD 42749). ECHOSTAR 21 can be tracked NOW for your location showing map with azimuth and elevation plus other details from your city location.

Track the satellite on the map from your city or location and see movement details for azimuth, elevation, latitude, longitude, range, height, and movement on the map or in text.







IsCatalogInMostPopularTable: catalog: 42749, numindb: 90
Update: records affected: 1



GetName: 42749 ECHOSTAR 21

Hit Count: updated at: Fri, 20 Jul 2018 20:37:27 GMT